Location: Churchill Northern Studies Centre
(58.7378°N, 93.8201°W)
Time: 02:53:37
(UTC-05:00)

Gurwin Techsat 1B - Visible Passes

Search period start: 21 April 2018 00:00
Search period end: 01 May 2018 00:00
Orbit: 812 x 814 km, 98.6° (Epoch: 20 April)

Date Brightness Start Highest point End Pass type
(mag) Time Alt. Az. Time Alt. Az. Time Alt. Az.
21 Apr 11.0 01:23:08 10° ENE 01:24:58 12° ENE 01:26:47 10° E visible
21 Apr 9.2 03:01:00 10° NNE 03:06:13 51° E 03:10:13 17° S visible
21 Apr 9.3 04:41:10 10° N 04:46:08 41° WNW 04:51:05 10° SW visible
22 Apr 9.7 02:38:17 10° NNE 02:43:13 37° E 02:47:13 15° SSE visible
22 Apr 8.9 04:18:14 10° NNE 04:23:26 55° WNW 04:28:26 11° SW visible
23 Apr 10.2 02:15:41 10° NNE 02:20:09 26° E 02:24:12 12° SE visible
23 Apr 8.7 03:55:19 10° NNE 04:00:39 75° WNW 04:05:25 13° SSW visible
24 Apr 10.6 01:53:15 10° NE 01:57:00 19° E 02:00:44 10° SE visible
24 Apr 8.7 03:32:27 10° NNE 03:37:49 81° ESE 03:42:24 14° SSW visible
25 Apr 10.9 01:31:12 10° NE 01:33:47 13° E 01:36:21 10° ESE visible
25 Apr 9.1 03:09:38 10° NNE 03:14:55 58° ESE 03:19:23 14° S visible
26 Apr 9.6 02:46:53 10° NNE 02:51:57 41° E 02:56:21 13° SSE visible
26 Apr 9.1 04:26:54 10° NNE 04:32:02 49° WNW 04:37:08 10° SW visible
27 Apr 10.1 02:24:13 10° NNE 02:28:54 30° E 02:33:20 11° SSE visible
27 Apr 8.8 04:03:59 10° NNE 04:09:17 67° WNW 04:14:32 10° SSW visible
28 Apr 10.5 02:01:42 10° NE 02:05:47 22° E 02:09:49 10° SE visible
28 Apr 8.7 03:41:06 10° NNE 03:46:28 90° WNW 03:51:31 12° SSW visible
29 Apr 10.9 01:39:28 10° NE 01:42:35 15° E 01:45:41 10° ESE visible
29 Apr 8.9 03:18:16 10° NNE 03:23:36 66° ESE 03:28:30 12° S visible
30 Apr 11.1 01:18:12 10° ENE 01:19:18 11° ENE 01:20:24 10° E visible
30 Apr 9.4 02:55:29 10° NNE 03:00:38 47° E 03:05:28 12° S visible
